#timestamp,LO_Frequency,Hit,StdDev 
1503630015.7,286047000.4,N,0.8
1503630035.6,286047002.8,Y,0.0
1503630055.4,286047001.2,P,0.3
1503630075.3,286047000.9,P,0.2
1503630095.1,286046998.6,P,1.0
1503630096.0,286046998.6,N,1.2
1503630115.8,286046998.5,N,1.2
1503630135.7,286047000.7,N,1.2
1503630155.5,286046998.3,N,1.2
1503630175.3,286047001.0,N,1.2
1503630195.2,286047001.0,N,1.2
1503630215.0,286046998.9,N,1.2
1503630215.9,286046998.9,N,1.2
1503630235.8,286046999.3,N,1.1
1503630255.6,286046999.0,N,1.1
1503630275.4,286046998.6,N,1.1
1503630295.3,286047000.7,N,1.1
1503630315.1,286046998.6,N,1.1
1503630335.9,286047000.6,N,1.1
1503630355.7,286046998.1,N,1.1
1503630375.5,286047001.0,N,1.1
1503630395.4,286047001.2,N,1.1
1503630415.2,286046998.3,N,1.2
1503630435.0,286046998.9,N,1.1
1503630435.9,286046998.9,N,1.1
1503630455.8,286046999.9,N,1.1
1503630475.6,286047000.7,N,1.1
1503630495.5,286047001.2,N,1.1
1503630515.3,286047001.2,N,1.1
1503630535.1,286047000.5,N,1.1
1503630555.9,286047000.9,N,1.1
1503630575.7,286047000.0,N,1.1
1503630595.6,286047000.3,N,1.1
1503630615.4,286047000.6,N,1.1
1503630635.2,286047000.5,N,1.1
1503630655.1,286047000.3,N,1.0
1503630656.0,286047000.3,N,1.0
1503630675.8,286046999.8,N,1.0
1503630695.7,286047000.6,N,1.0
1503630715.5,286046999.7,N,0.9
1503630735.3,286047000.0,N,0.9
1503630755.2,286047000.5,N,0.9
1503630775.0,286047000.4,N,0.9
1503630775.9,286047000.4,N,0.9
1503630795.7,286047000.5,N,0.9
1503630815.6,286047000.8,N,0.8
1503630835.4,286046998.2,N,0.9
1503630855.3,286047001.1,N,0.9
1503630875.1,286047000.9,N,0.9
1503630895.8,286047001.0,N,0.8
1503630915.7,286047000.8,N,0.8
1503630935.5,286047000.7,N,0.8
1503630955.4,286047001.2,N,0.7
1503630975.2,286046999.0,N,0.7
1503630995.0,286046998.5,N,0.7
1503630995.9,286046998.5,N,0.8
1503631015.8,286047001.2,N,0.8
1503631035.6,286046998.5,N,0.9
1503631055.4,286046998.7,N,0.9
1503631075.3,286046999.6,N,0.9
1503631095.1,286046996.7,Y,0.0
1503631115.9,286046997.4,P,1.4
1503631135.7,286046997.7,N,1.2
1503631155.5,286046998.0,N,1.1
1503631175.4,286046997.8,N,1.0
1503631195.2,286046997.5,N,0.9
1503631215.1,286046997.7,N,0.9
1503631216.0,286046997.7,N,0.8
1503631235.8,286046994.9,Y,0.0
1503631255.6,286046996.6,P,0.7
1503631275.5,286046995.0,P,1.2
1503631295.3,286046997.6,N,1.2
1503631315.2,286046995.5,Y,0.0
1503631335.9,286046998.2,P,0.7
1503631355.7,286047001.2,N,1.8
1503631375.6,286046998.2,N,1.6
1503631395.4,286047001.2,N,1.8
1503631415.3,286046999.0,N,1.6
1503631435.1,286046999.1,N,1.5
1503631436.0,286046999.1,N,1.4
1503631455.8,286046996.5,N,1.6
1503631475.7,286046999.2,N,1.5
1503631495.5,286046996.9,N,1.5
1503631515.3,286046997.4,N,1.5
1503631535.2,286046996.6,N,1.5
1503631555.0,286046997.7,N,1.5
1503631555.9,286046997.7,N,1.4
1503631575.8,286046995.2,Y,0.0
1503631595.6,286046997.5,P,0.4
1503631615.4,286046997.4,P,0.4
1503631635.3,286046997.0,P,0.5
1503631655.1,286046998.8,N,0.7
1503631675.9,286046999.2,N,0.8
1503631695.7,286046999.5,N,0.9
1503631715.5,286046999.2,N,0.9
1503631735.4,286046999.6,N,0.9
1503631755.2,286046997.4,N,0.9
1503631775.1,286046997.4,N,0.9
1503631776.0,286046997.4,N,0.9
1503631795.8,286046997.2,Y,0.0
1503631815.6,286046999.0,P,0.4
1503631835.5,286046998.9,N,0.3
1503631855.3,286046997.1,P,0.8
1503631875.2,286046997.3,Y,0.0
1503631895.9,286046999.4,P,0.5
1503631915.7,286046998.5,N,0.5
1503631935.6,286047000.7,N,0.9
1503631955.4,286047000.7,N,1.0
1503631975.3,286046999.4,N,0.9
1503631995.1,286046998.3,N,1.0
1503631996.0,286046998.3,N,1.0
1503632015.8,286046999.2,N,0.9
1503632035.7,286046999.3,N,0.9
1503632055.5,286046999.1,N,0.8
1503632075.3,286046998.8,N,0.8
1503632095.2,286046996.5,Y,0.0
1503632115.0,286046998.2,P,0.5
1503632115.9,286046998.2,P,0.5
1503632135.8,286047000.8,N,1.1
1503632155.6,286047000.4,N,1.1
1503632175.4,286047001.1,N,1.2
1503632195.3,286047000.8,N,1.2
1503632215.1,286046998.8,N,1.1
1503632235.9,286046998.6,N,1.1
1503632255.7,286046998.1,N,1.2
1503632275.5,286046998.5,N,1.1
1503632295.4,286046999.3,N,1.1
1503632315.2,286046999.0,N,1.0
1503632335.1,286046999.4,N,1.0
1503632336.0,286046999.4,N,1.0
1503632355.8,286046999.2,N,0.9
1503632375.6,286046998.3,N,0.9
1503632395.5,286046998.9,N,0.9
1503632415.3,286046998.4,N,0.9
1503632435.2,286046999.6,N,0.9
1503632455.9,286046999.0,N,0.9
1503632475.7,286046996.9,Y,0.0
1503632495.6,286046998.6,P,0.3
1503632515.4,286046998.1,P,0.4
1503632535.3,286046998.9,N,0.4
1503632555.1,286046999.0,N,0.4
1503632556.0,286046999.0,N,0.4
1503632575.8,286046998.1,Y,0.0
1503632595.7,286047000.2,P,0.7
1503632615.5,286047000.9,N,0.9
1503632635.4,286046998.2,N,1.1
1503632655.2,286047001.0,N,1.1
1503632675.0,286047000.4,N,1.1
1503632675.9,286047000.4,N,1.0
1503632695.8,286047002.4,N,1.2
1503632715.6,286046999.9,N,1.2
1503632735.5,286047000.9,N,1.1
1503632755.3,286047000.9,N,1.1
1503632775.1,286047000.1,N,1.0
1503632795.9,286047000.0,N,1.0
1503632815.7,286046999.9,N,1.0
1503632835.6,286047011.9,Y,0.0
1503632855.4,286047000.1,P,0.1
1503632875.2,286047000.0,N,0.1
1503632895.1,286047002.3,P,0.9
1503632896.0,286047002.3,N,1.1
1503632915.8,286047002.4,N,1.1
1503632935.6,286047002.8,N,1.2
1503632955.5,286047001.6,N,1.1
1503632975.3,286047002.0,N,1.0
1503632995.2,286047003.8,Y,0.0
1503633015.9,286047002.5,P,0.5
1503633035.7,286047002.8,P,0.5
1503633055.6,286046999.9,N,1.1
1503633075.4,286047002.8,N,1.1
1503633095.3,286047002.5,N,1.0
1503633115.1,286047002.5,N,1.0
1503633116.0,286047002.5,N,0.9
1503633135.8,286047002.3,N,0.9
1503633155.7,286047001.8,N,0.8
1503633175.5,286047002.0,N,0.8
1503633195.4,286047002.1,N,0.8
1503633215.2,286047001.3,N,0.8
1503633235.0,286047003.8,Y,0.0
1503633235.9,286047003.8,P,0.9
1503633255.8,286046999.8,N,1.6
1503633275.6,286046999.8,N,1.7
1503633295.5,286047002.3,N,1.5
1503633315.3,286047002.0,N,1.4
1503633335.1,286046999.9,N,1.4
1503633355.9,286046999.8,N,1.5
1503633375.7,286047002.6,N,1.4
1503633395.5,286047002.6,N,1.4
1503633415.4,286047001.5,N,1.4
1503633435.2,286047002.8,N,1.3
1503633455.1,286047002.2,N,1.3
1503633456.0,286047002.2,N,1.3
1503633475.8,286047001.5,N,1.2
1503633495.6,286047001.8,N,1.2
1503633515.5,286047001.4,N,1.2
1503633535.3,286047004.0,Y,0.0
1503633555.2,286047002.8,P,0.6
1503633575.9,286047000.6,N,0.9
1503633595.7,286047001.0,N,0.8
